| time (UTC) | temp F | wind direction | speed knots | gust knots | rain 1hr in | rain 24hr in | rain mn in | humidity % | barometer mb |
| 20260506232419 | 86 | 115 | 0.0 | 1.7 | 0.00 | 0.00 | 0.00 | 81 | 1007.1 |
| 20260506232417 | 86 | 123 | 0.0 | 1.7 | 0.00 | 0.00 | 0.00 | 81 | 1006.0 |
| 20260506231919 | 86 | 82 | 0.0 | 0.0 | 0.00 | 0.00 | 0.00 | 81 | 1007.1 |
| 20260506231911 | 86 | 82 | 0.0 | 1.7 | 0.00 | 0.00 | 0.00 | 81 | 1005.8 |
| 20260506231420 | 87 | 50 | 0.9 | 0.9 | 0.00 | 0.00 | 0.00 | 81 | 1006.8 |
| 20260506231405 | 87 | 50 | 0.0 | 4.3 | 0.00 | 0.00 | 0.00 | 81 | 1005.7 |
| 20260506230918 | 87 | 79 | 0.9 | 4.3 | 0.00 | 0.00 | 0.00 | 81 | 1006.8 |
| 20260506230859 | 87 | 79 | 0.0 | 4.3 | 0.00 | 0.00 | 0.00 | 81 | 1005.7 |
| 20260506230418 | 87 | 142 | 0.0 | 0.9 | 0.00 | 0.00 | 0.00 | 81 | 1006.8 |
| 20260506225919 | 87 | 99 | 1.7 | 3.5 | 0.00 | 0.00 | 0.00 | 80 | 1006.8 |
| 20260506225847 | 87 | 74 | 0.9 | 3.5 | 0.00 | 0.00 | 0.00 | 80 | 1005.7 |
| 20260506225419 | 87 | 57 | 0.0 | 2.6 | 0.00 | 0.00 | 0.00 | 80 | 1006.8 |
| 20260506225340 | 88 | 126 | 0.0 | 2.6 | 0.00 | 0.00 | 0.00 | 79 | 1005.6 |
| 20260506224917 | 88 | 92 | 0.0 | 0.9 | 0.00 | 0.00 | 0.00 | 79 | 1006.8 |
| 20260506224834 | 88 | 97 | 0.9 | 3.5 | 0.00 | 0.00 | 0.00 | 79 | 1005.6 |
| 20260506224418 | 89 | 209 | 0.0 | 3.5 | 0.00 | 0.00 | 0.00 | 78 | 1006.8 |
| 20260506224328 | 89 | 205 | 0.9 | 3.5 | 0.00 | 0.00 | 0.00 | 78 | 1005.6 |
| 20260506223917 | 89 | 78 | 0.9 | 2.6 | 0.00 | 0.00 | 0.00 | 77 | 1006.4 |
| 20260506223821 | 89 | 120 | 0.0 | 4.3 | 0.00 | 0.00 | 0.00 | 77 | 1005.5 |
| 20260506223417 | 90 | 138 | 0.0 | 3.5 | 0.00 | 0.00 | 0.00 | 76 | 1006.4 |
| 20260506223316 | 90 | 139 | 0.0 | 4.3 | 0.00 | 0.00 | 0.00 | 76 | 1005.5 |
| 20260506222917 | 90 | 301 | 0.0 | 0.0 | 0.00 | 0.00 | 0.00 | 76 | 1006.4 |
| 20260506222809 | 90 | 105 | 0.0 | 1.7 | 0.00 | 0.00 | 0.00 | 76 | 1005.4 |
| 20260506222417 | 90 | 101 | 0.9 | 1.7 | 0.00 | 0.00 | 0.00 | 74 | 1006.4 |
| 20260506222306 | 90 | 55 | 0.0 | 1.7 | 0.00 | 0.00 | 0.00 | 74 | 1005.4 |
| 20260506221918 | 91 | 58 | 0.0 | 1.7 | 0.00 | 0.00 | 0.00 | 73 | 1006.4 |
| 20260506221759 | 91 | 51 | 0.0 | 1.7 | 0.00 | 0.00 | 0.00 | 72 | 1005.4 |
| 20260506221418 | 91 | 55 | 0.0 | 0.9 | 0.00 | 0.00 | 0.00 | 72 | 1006.4 |
| 20260506221251 | 91 | 55 | 0.0 | 1.7 | 0.00 | 0.00 | 0.00 | 72 | 1005.4 |
| 20260506220915 | 91 | 55 | 0.0 | 0.0 | 0.00 | 0.00 | 0.00 | 73 | 1006.4 |
| 20260506220747 | 91 | 55 | 0.0 | 1.7 | 0.00 | 0.00 | 0.00 | 72 | 1005.5 |
| 20260506220418 | 91 | 55 | 0.0 | 1.7 | 0.00 | 0.00 | 0.00 | 72 | 1006.4 |
| 20260506220241 | 91 | 163 | 0.0 | 1.7 | 0.00 | 0.00 | 0.00 | 72 | 1005.5 |
| 20260506215916 | 91 | 193 | 0.0 | 0.0 | 0.00 | 0.00 | 0.00 | 73 | 1006.4 |
| 20260506215735 | 91 | 96 | 0.0 | 1.7 | 0.00 | 0.00 | 0.00 | 73 | 1005.4 |
| 20260506215416 | 91 | 74 | 0.0 | 0.9 | 0.00 | 0.00 | 0.00 | 73 | 1006.4 |
| 20260506215227 | 91 | 80 | 0.0 | 0.9 | 0.00 | 0.00 | 0.00 | 73 | 1005.4 |
| 20260506214915 | 91 | 79 | 0.0 | 0.9 | 0.00 | 0.00 | 0.00 | 73 | 1006.4 |
| 20260506214721 | 91 | 79 | 0.0 | 2.6 | 0.00 | 0.00 | 0.00 | 72 | 1005.5 |
| 20260506214416 | 90 | 79 | 0.9 | 0.9 | 0.00 | 0.00 | 0.00 | 74 | 1006.8 |
| 20260506214216 | 90 | 32 | 0.0 | 2.6 | 0.00 | 0.00 | 0.00 | 73 | 1005.6 |
| 20260506213914 | 91 | 82 | 0.0 | 2.6 | 0.00 | 0.00 | 0.00 | 72 | 1006.4 |
| 20260506213415 | 91 | 119 | 0.0 | 0.9 | 0.00 | 0.00 | 0.00 | 73 | 1006.4 |
| 20260506213204 | 91 | 117 | 0.0 | 1.7 | 0.00 | 0.00 | 0.00 | 73 | 1005.4 |
| 20260506212915 | 91 | 65 | 0.0 | 0.9 | 0.00 | 0.00 | 0.00 | 73 | 1006.8 |
| 20260506212658 | 91 | 70 | 0.0 | 1.7 | 0.00 | 0.00 | 0.00 | 73 | 1005.5 |
| 20260506212416 | 91 | 69 | 0.9 | 1.7 | 0.00 | 0.00 | 0.00 | 72 | 1006.8 |
| 20260506211914 | 91 | 326 | 0.0 | 0.9 | 0.00 | 0.00 | 0.00 | 73 | 1006.8 |
| 20260506211645 | 90 | 12 | 0.0 | 0.9 | 0.00 | 0.00 | 0.00 | 74 | 1005.5 |
| 20260506211413 | 89 | 14 | 0.0 | 0.0 | 0.00 | 0.00 | 0.00 | 74 | 1006.4 |
| 20260506211141 | 89 | 14 | 0.0 | 1.7 | 0.00 | 0.00 | 0.00 | 75 | 1005.5 |
| 20260506210914 | 89 | 14 | 0.0 | 0.0 | 0.00 | 0.00 | 0.00 | 73 | 1006.4 |
| 20260506210634 | 89 | 14 | 0.0 | 1.7 | 0.00 | 0.00 | 0.00 | 73 | 1005.5 |
| 20260506210413 | 90 | 15 | 0.0 | 0.9 | 0.00 | 0.00 | 0.00 | 73 | 1006.8 |
| 20260506210128 | 90 | 306 | 0.0 | 1.7 | 0.00 | 0.00 | 0.00 | 73 | 1005.6 |
| 20260506205914 | 91 | 115 | 0.9 | 0.9 | 0.00 | 0.00 | 0.00 | 73 | 1006.8 |
| 20260506205622 | 90 | 115 | 0.9 | 2.6 | 0.00 | 0.00 | 0.00 | 74 | 1005.7 |
| 20260506205413 | 90 | 115 | 0.9 | 0.9 | 0.00 | 0.00 | 0.00 | 74 | 1006.8 |
| 20260506205116 | 90 | 67 | 0.0 | 2.6 | 0.00 | 0.00 | 0.00 | 74 | 1005.8 |
| 20260506204915 | 90 | 67 | 2.6 | 2.6 | 0.00 | 0.00 | 0.00 | 75 | 1007.1 |
| 20260506204610 | 90 | 92 | 0.0 | 2.6 | 0.00 | 0.00 | 0.00 | 73 | 1005.9 |
| 20260506204415 | 90 | 87 | 0.0 | 0.9 | 0.00 | 0.00 | 0.00 | 74 | 1007.1 |
| 20260506204105 | 90 | 223 | 0.0 | 1.7 | 0.00 | 0.00 | 0.00 | 74 | 1005.9 |
| 20260506203912 | 90 | 76 | 0.0 | 0.9 | 0.00 | 0.00 | 0.00 | 74 | 1007.1 |
| 20260506203559 | 90 | 282 | 0.9 | 2.6 | 0.00 | 0.00 | 0.00 | 75 | 1006.0 |
| 20260506203412 | 90 | 184 | 0.9 | 0.9 | 0.00 | 0.00 | 0.00 | 76 | 1007.1 |
| 20260506203053 | 90 | 178 | 0.9 | 5.2 | 0.00 | 0.00 | 0.00 | 75 | 1005.9 |
| 20260506202912 | 90 | 224 | 1.7 | 1.7 | 0.00 | 0.00 | 0.00 | 77 | 1007.1 |
| 20260506202547 | 89 | 210 | 1.7 | 5.2 | 0.00 | 0.00 | 0.00 | 77 | 1006.0 |
| 20260506202413 | 89 | 225 | 0.0 | 3.5 | 0.00 | 0.00 | 0.00 | 77 | 1007.1 |
| 20260506202040 | 89 | 246 | 1.7 | 4.3 | 0.00 | 0.00 | 0.00 | 76 | 1006.0 |
| 20260506201913 | 89 | 204 | 0.0 | 2.6 | 0.00 | 0.00 | 0.00 | 77 | 1007.1 |
| 20260506201412 | 89 | 196 | 0.9 | 2.6 | 0.00 | 0.00 | 0.00 | 78 | 1007.1 |
| 20260506200913 | 89 | 207 | 0.0 | 2.6 | 0.00 | 0.00 | 0.00 | 77 | 1007.5 |
| 20260506200523 | 89 | 152 | 1.7 | 9.6 | 0.00 | 0.00 | 0.00 | 78 | 1006.2 |
| 20260506200411 | 89 | 198 | 0.0 | 3.5 | 0.00 | 0.00 | 0.00 | 78 | 1007.5 |
| 20260506200017 | 89 | 254 | 0.9 | 7.8 | 0.00 | 0.00 | 0.00 | 77 | 1006.2 |
| 20260506195911 | 89 | 219 | 2.6 | 7.8 | 0.00 | 0.00 | 0.00 | 77 | 1007.5 |
| 20260506195511 | 89 | 197 | 0.9 | 2.6 | 0.00 | 0.00 | 0.00 | 78 | 1006.2 |
| 20260506195414 | 89 | 196 | 0.9 | 2.6 | 0.00 | 0.00 | 0.00 | 78 | 1007.5 |
| 20260506195009 | 88 | 18 | 0.9 | 3.5 | 0.00 | 0.00 | 0.00 | 79 | 1006.3 |
| 20260506194939 | 88 | 184 | 0.9 | 1.7 | 0.00 | 0.00 | 0.00 | 79 | 1007.5 |
| 20260506194453 | 87 | 159 | 1.7 | 5.2 | 0.00 | 0.00 | 0.00 | 80 | 1006.4 |
| 20260506194440 | 87 | 210 | 0.9 | 1.7 | 0.00 | 0.00 | 0.00 | 80 | 1007.5 |
| 20260506193941 | 87 | 195 | 3.5 | 4.3 | 0.00 | 0.00 | 0.00 | 79 | 1007.8 |
| 20260506193510 | 87 | 229 | 0.9 | 3.5 | 0.00 | 0.00 | 0.00 | 80 | 1007.8 |
| 20260506193013 | 87 | 211 | 1.7 | 4.3 | 0.00 | 0.00 | 0.00 | 80 | 1007.8 |
| 20260506192937 | 87 | 152 | 0.9 | 7.0 | 0.00 | 0.00 | 0.00 | 80 | 1006.8 |
| 20260506192512 | 88 | 217 | 3.5 | 3.5 | 0.00 | 0.00 | 0.00 | 79 | 1008.1 |
| 20260506192430 | 88 | 255 | 0.9 | 4.3 | 0.00 | 0.00 | 0.00 | 79 | 1006.9 |
| 20260506192014 | 88 | 188 | 0.9 | 1.7 | 0.00 | 0.00 | 0.00 | 79 | 1008.1 |
| 20260506191924 | 87 | 136 | 0.9 | 4.3 | 0.00 | 0.00 | 0.00 | 80 | 1006.8 |
| 20260506191512 | 88 | 221 | 2.6 | 4.3 | 0.00 | 0.00 | 0.00 | 79 | 1008.1 |
| 20260506191418 | 88 | 246 | 0.0 | 4.3 | 0.00 | 0.00 | 0.00 | 80 | 1006.9 |
| 20260506191013 | 88 | 244 | 0.9 | 2.6 | 0.00 | 0.00 | 0.00 | 79 | 1008.1 |
| 20260506190912 | 88 | 246 | 0.9 | 2.6 | 0.00 | 0.00 | 0.00 | 79 | 1007.0 |
| 20260506190510 | 88 | 174 | 0.0 | 0.9 | 0.00 | 0.00 | 0.00 | 78 | 1008.1 |
| 20260506190405 | 88 | 261 | 0.9 | 4.3 | 0.00 | 0.00 | 0.00 | 78 | 1006.9 |
| 20260506190011 | 89 | 224 | 0.9 | 2.6 | 0.00 | 0.00 | 0.00 | 78 | 1008.1 |
| 20260506185901 | 89 | 198 | 0.9 | 4.3 | 0.00 | 0.00 | 0.00 | 78 | 1006.9 |
| 20260506185511 | 89 | 166 | 0.0 | 0.9 | 0.00 | 0.00 | 0.00 | 78 | 1008.1 |
| 20260506185015 | 88 | 235 | 0.0 | 0.9 | 0.00 | 0.00 | 0.00 | 79 | 1008.1 |
| 20260506184847 | 88 | 169 | 0.0 | 0.9 | 0.00 | 0.00 | 0.00 | 79 | 1007.0 |
| 20260506184514 | 88 | 190 | 0.0 | 0.9 | 0.00 | 0.00 | 0.00 | 80 | 1008.1 |
| 20260506184343 | 87 | 225 | 0.0 | 3.5 | 0.00 | 0.00 | 0.00 | 80 | 1007.0 |
| 20260506184012 | 87 | 208 | 0.0 | 0.9 | 0.00 | 0.00 | 0.00 | 81 | 1008.5 |
| 20260506183836 | 87 | 65 | 0.0 | 3.5 | 0.00 | 0.00 | 0.00 | 81 | 1007.1 |
| 20260506183513 | 87 | 207 | 0.0 | 2.6 | 0.00 | 0.00 | 0.00 | 81 | 1008.5 |
| 20260506183330 | 87 | 240 | 0.0 | 2.6 | 0.00 | 0.00 | 0.00 | 81 | 1007.2 |
| 20260506183015 | 86 | 207 | 0.0 | 2.6 | 0.00 | 0.00 | 0.00 | 81 | 1008.5 |
| 20260506182824 | 86 | 229 | 0.9 | 4.3 | 0.00 | 0.00 | 0.00 | 81 | 1007.3 |
| 20260506182512 | 86 | 226 | 0.0 | 1.7 | 0.00 | 0.00 | 0.00 | 81 | 1008.5 |
| 20260506182318 | 86 | 227 | 0.0 | 4.3 | 0.00 | 0.00 | 0.00 | 81 | 1007.4 |
| 20260506182016 | 86 | 180 | 0.0 | 0.9 | 0.00 | 0.00 | 0.00 | 83 | 1008.5 |
| 20260506181811 | 86 | 239 | 0.0 | 0.9 | 0.00 | 0.00 | 0.00 | 83 | 1007.5 |
| 20260506181510 | 85 | 190 | 0.0 | 0.0 | 0.00 | 0.00 | 0.00 | 85 | 1008.5 |
| 20260506181306 | 85 | 147 | 0.0 | 0.9 | 0.00 | 0.00 | 0.00 | 85 | 1007.6 |
| 20260506181014 | 84 | 201 | 0.0 | 0.0 | 0.00 | 0.00 | 0.00 | 86 | 1008.8 |
| 20260506180516 | 84 | 215 | 0.0 | 0.9 | 0.00 | 0.00 | 0.00 | 86 | 1008.8 |
| 20260506180253 | 83 | 230 | 0.0 | 1.7 | 0.00 | 0.00 | 0.00 | 85 | 1007.7 |
| 20260506180011 | 83 | 223 | 0.9 | 0.9 | 0.00 | 0.00 | 0.00 | 86 | 1008.8 |
| 20260506175748 | 83 | 248 | 0.0 | 1.7 | 0.00 | 0.00 | 0.00 | 86 | 1007.7 |
| 20260506175512 | 83 | 227 | 0.0 | 0.9 | 0.00 | 0.00 | 0.00 | 87 | 1008.8 |
| 20260506175241 | 83 | 313 | 0.0 | 1.7 | 0.00 | 0.00 | 0.00 | 87 | 1007.8 |
| 20260506175014 | 83 | 213 | 0.0 | 0.9 | 0.00 | 0.00 | 0.00 | 87 | 1009.1 |
| 20260506174736 | 83 | 229 | 0.9 | 4.3 | 0.00 | 0.00 | 0.00 | 87 | 1007.8 |
| 20260506174514 | 83 | 204 | 0.0 | 0.9 | 0.00 | 0.00 | 0.00 | 87 | 1008.8 |
| 20260506174230 | 83 | 210 | 0.9 | 4.3 | 0.00 | 0.00 | 0.00 | 86 | 1007.8 |
| 20260506174038 | 83 | 221 | 1.7 | 3.5 | 0.00 | 0.00 | 0.00 | 85 | 1009.1 |
| 20260506173724 | 84 | 160 | 0.0 | 3.5 | 0.00 | 0.00 | 0.00 | 84 | 1007.9 |
| 20260506173539 | 84 | 226 | 0.0 | 1.7 | 0.00 | 0.00 | 0.00 | 84 | 1009.1 |
| 20260506173218 | 84 | 202 | 0.0 | 0.9 | 0.00 | 0.00 | 0.00 | 85 | 1007.9 |
| 20260506173039 | 84 | 210 | 0.0 | 0.9 | 0.00 | 0.00 | 0.00 | 85 | 1009.1 |
| 20260506172712 | 84 | 221 | 0.0 | 0.9 | 0.00 | 0.00 | 0.00 | 85 | 1007.8 |
| 20260506172525 | 84 | 227 | 0.0 | 0.9 | 0.00 | 0.00 | 0.00 | 85 | 1009.1 |
| 20260506172207 | 84 | 235 | 0.0 | 0.9 | 0.00 | 0.00 | 0.00 | 85 | 1007.8 |
| 20260506172022 | 84 | 179 | 0.0 | 0.0 | 0.00 | 0.00 | 0.00 | 85 | 1008.8 |
| 20260506171701 | 84 | 283 | 0.0 | 0.9 | 0.00 | 0.00 | 0.00 | 85 | 1007.9 |
| 20260506171523 | 84 | 86 | 0.0 | 0.9 | 0.00 | 0.00 | 0.00 | 85 | 1009.1 |
| 20260506171156 | 84 | 83 | 0.0 | 0.9 | 0.00 | 0.00 | 0.00 | 86 | 1007.9 |
| 20260506171021 | 84 | 249 | 0.0 | 0.9 | 0.00 | 0.00 | 0.00 | 86 | 1009.1 |
| 20260506170648 | 83 | 28 | 0.0 | 0.9 | 0.00 | 0.00 | 0.00 | 86 | 1007.9 |
| 20260506170524 | 83 | 26 | 0.0 | 0.0 | 0.00 | 0.00 | 0.00 | 86 | 1009.1 |
| 20260506170141 | 83 | 26 | 0.0 | 0.9 | 0.00 | 0.00 | 0.00 | 86 | 1007.8 |
| 20260506170023 | 83 | 26 | 0.0 | 0.9 | 0.00 | 0.00 | 0.00 | 86 | 1009.1 |
| 20260506165522 | 83 | 191 | 0.0 | 0.9 | 0.00 | 0.00 | 0.00 | 86 | 1009.1 |
| 20260506165130 | 83 | 29 | 0.0 | 3.5 | 0.00 | 0.00 | 0.00 | 86 | 1007.9 |
| 20260506165022 | 83 | 166 | 0.0 | 0.0 | 0.00 | 0.00 | 0.00 | 86 | 1009.1 |
| 20260506164624 | 83 | 87 | 0.0 | 1.7 | 0.00 | 0.00 | 0.00 | 86 | 1007.9 |
| 20260506164525 | 83 | 104 | 0.0 | 0.9 | 0.00 | 0.00 | 0.00 | 86 | 1009.1 |
| 20260506164118 | 83 | 95 | 0.0 | 0.9 | 0.00 | 0.00 | 0.00 | 87 | 1007.8 |
| 20260506164022 | 83 | 95 | 0.0 | 0.9 | 0.00 | 0.00 | 0.00 | 87 | 1008.8 |
| 20260506163612 | 83 | 95 | 0.0 | 0.9 | 0.00 | 0.00 | 0.00 | 87 | 1007.8 |
| 20260506163520 | 83 | 94 | 0.0 | 0.9 | 0.00 | 0.00 | 0.00 | 87 | 1008.8 |
| 20260506163022 | 83 | 27 | 0.0 | 0.0 | 0.00 | 0.00 | 0.00 | 87 | 1008.8 |
| 20260506162600 | 83 | 81 | 0.0 | 1.7 | 0.00 | 0.00 | 0.00 | 87 | 1007.7 |
| 20260506162521 | 83 | 81 | 0.0 | 0.9 | 0.00 | 0.00 | 0.00 | 87 | 1008.8 |
| 20260506162054 | 82 | 65 | 0.0 | 2.6 | 0.00 | 0.00 | 0.00 | 88 | 1007.6 |
| 20260506162021 | 82 | 90 | 0.0 | 0.9 | 0.00 | 0.00 | 0.00 | 88 | 1008.8 |
| 20260506161548 | 82 | 28 | 0.0 | 2.6 | 0.00 | 0.00 | 0.00 | 87 | 1007.5 |
| 20260506161522 | 82 | 33 | 1.7 | 1.7 | 0.00 | 0.00 | 0.00 | 87 | 1008.5 |
| 20260506161020 | 82 | 215 | 0.9 | 0.9 | 0.00 | 0.00 | 0.00 | 88 | 1008.5 |
| 20260506160537 | 82 | 86 | 0.0 | 0.9 | 0.00 | 0.00 | 0.00 | 88 | 1007.5 |
| 20260506160521 | 82 | 86 | 0.0 | 0.9 | 0.00 | 0.00 | 0.00 | 88 | 1008.5 |
| 20260506160031 | 82 | 86 | 0.0 | 0.9 | 0.00 | 0.00 | 0.00 | 88 | 1007.3 |
| 20260506160021 | 82 | 86 | 0.0 | 0.9 | 0.00 | 0.00 | 0.00 | 89 | 1008.5 |
| 20260506155525 | 82 | 71 | 0.0 | 2.6 | 0.00 | 0.00 | 0.00 | 89 | 1007.2 |
| 20260506155521 | 82 | 71 | 0.0 | 0.9 | 0.00 | 0.00 | 0.00 | 89 | 1008.5 |
| 20260506155019 | 81 | 119 | 0.0 | 2.6 | 0.00 | 0.00 | 0.00 | 89 | 1008.5 |
| 20260506155017 | 81 | 120 | 0.0 | 2.6 | 0.00 | 0.00 | 0.00 | 89 | 1007.1 |
| 20260506154520 | 81 | 76 | 0.0 | 0.9 | 0.00 | 0.00 | 0.00 | 90 | 1008.1 |
| 20260506154518 | 81 | 15 | 0.0 | 1.7 | 0.00 | 0.00 | 0.00 | 90 | 1007.0 |
| 20260506154022 | 81 | 23 | 0.0 | 0.9 | 0.00 | 0.00 | 0.00 | 90 | 1008.1 |
| 20260506153520 | 81 | 74 | 0.0 | 0.9 | 0.00 | 0.00 | 0.00 | 89 | 1008.1 |
| 20260506153515 | 81 | 88 | 0.0 | 1.7 | 0.00 | 0.00 | 0.00 | 90 | 1007.1 |
| 20260506153020 | 81 | 86 | 0.0 | 1.7 | 0.00 | 0.00 | 0.00 | 90 | 1008.1 |
| 20260506153012 | 81 | 86 | 0.0 | 1.7 | 0.00 | 0.00 | 0.00 | 90 | 1007.0 |
| 20260506152519 | 81 | 31 | 0.0 | 0.9 | 0.00 | 0.00 | 0.00 | 90 | 1008.1 |
| 20260506152021 | 81 | 317 | 0.0 | 0.9 | 0.00 | 0.00 | 0.00 | 90 | 1008.1 |
| 20260506152011 | 81 | 317 | 0.0 | 3.5 | 0.00 | 0.00 | 0.00 | 90 | 1007.0 |
| 20260506151517 | 80 | 75 | 0.0 | 2.6 | 0.00 | 0.00 | 0.00 | 90 | 1008.1 |
| 20260506151019 | 80 | 56 | 0.0 | 0.9 | 0.00 | 0.00 | 0.00 | 92 | 1008.1 |
| 20260506151010 | 80 | 60 | 0.0 | 2.6 | 0.00 | 0.00 | 0.00 | 92 | 1006.8 |
| 20260506150518 | 80 | 65 | 0.0 | 0.9 | 0.00 | 0.00 | 0.00 | 93 | 1007.8 |
| 20260506150510 | 80 | 65 | 0.0 | 2.6 | 0.00 | 0.00 | 0.00 | 93 | 1006.7 |
| 20260506150019 | 79 | 109 | 0.0 | 0.9 | 0.00 | 0.00 | 0.00 | 93 | 1007.8 |
| 20260506150009 | 79 | 109 | 0.9 | 2.6 | 0.00 | 0.00 | 0.00 | 93 | 1006.7 |
| 20260506145519 | 79 | 71 | 0.0 | 2.6 | 0.00 | 0.00 | 0.00 | 94 | 1007.8 |
| 20260506145508 | 79 | 70 | 0.0 | 2.6 | 0.00 | 0.00 | 0.00 | 94 | 1006.6 |
| 20260506145018 | 78 | 234 | 0.0 | 0.9 | 0.00 | 0.00 | 0.00 | 94 | 1007.8 |
| 20260506145008 | 78 | 223 | 0.0 | 0.9 | 0.00 | 0.00 | 0.00 | 94 | 1006.5 |
| 20260506144617 | 78 | 110 | 0.0 | 0.0 | 0.00 | 0.00 | 0.00 | 95 | 1007.5 |
| 20260506144116 | 78 | 105 | 0.0 | 0.9 | 0.00 | 0.00 | 0.00 | 95 | 1007.8 |
| 20260506144008 | 78 | 105 | 0.0 | 2.6 | 0.00 | 0.00 | 0.00 | 94 | 1006.4 |
| 20260506143617 | 78 | 92 | 0.9 | 2.6 | 0.00 | 0.00 | 0.00 | 95 | 1007.8 |
| 20260506143506 | 78 | 71 | 0.0 | 0.9 | 0.00 | 0.00 | 0.00 | 95 | 1006.5 |
| 20260506143116 | 78 | 78 | 0.0 | 0.9 | 0.00 | 0.00 | 0.00 | 95 | 1007.8 |
| 20260506143005 | 77 | 78 | 0.0 | 3.5 | 0.00 | 0.00 | 0.00 | 95 | 1006.6 |
| 20260506142617 | 77 | 111 | 0.0 | 0.0 | 0.00 | 0.00 | 0.00 | 95 | 1007.8 |
| 20260506142502 | 77 | 82 | 0.0 | 3.5 | 0.00 | 0.00 | 0.00 | 95 | 1006.5 |
| 20260506142116 | 77 | 281 | 0.9 | 1.7 | 0.00 | 0.00 | 0.00 | 95 | 1007.8 |
| 20260506142000 | 77 | 103 | 0.0 | 1.7 | 0.00 | 0.00 | 0.00 | 95 | 1006.5 |
| 20260506141616 | 77 | 107 | 0.0 | 1.7 | 0.00 | 0.00 | 0.00 | 95 | 1007.5 |
| 20260506141500 | 77 | 102 | 0.0 | 1.7 | 0.00 | 0.00 | 0.00 | 95 | 1006.5 |
| 20260506141116 | 77 | 103 | 0.0 | 1.7 | 0.00 | 0.00 | 0.00 | 95 | 1007.8 |
| 20260506140617 | 77 | 79 | 0.0 | 1.7 | 0.00 | 0.00 | 0.00 | 95 | 1007.5 |
| 20260506140115 | 77 | 15 | 0.0 | 0.0 | 0.00 | 0.00 | 0.00 | 95 | 1007.5 |
| 20260506135952 | 77 | 15 | 0.0 | 0.0 | 0.00 | 0.00 | 0.00 | 95 | 1006.4 |
| 20260506135616 | 77 | 13 | 0.0 | 0.0 | 0.00 | 0.00 | 0.00 | 95 | 1007.5 |
| 20260506135450 | 77 | 13 | 0.0 | 0.0 | 0.00 | 0.00 | 0.00 | 95 | 1006.3 |
| 20260506135117 | 77 | 12 | 0.0 | 0.0 | 0.00 | 0.00 | 0.00 | 95 | 1007.5 |
| 20260506134949 | 77 | 13 | 0.0 | 0.9 | 0.00 | 0.00 | 0.00 | 95 | 1006.5 |
| 20260506134618 | 77 | 309 | 0.0 | 0.0 | 0.00 | 0.00 | 0.00 | 95 | 1007.5 |
| 20260506134447 | 77 | 309 | 0.0 | 0.9 | 0.00 | 0.00 | 0.00 | 95 | 1006.4 |
| 20260506134114 | 77 | 90 | 0.0 | 0.9 | 0.00 | 0.00 | 0.00 | 95 | 1007.5 |
| 20260506133945 | 77 | 90 | 0.0 | 0.9 | 0.00 | 0.01 | 0.00 | 95 | 1006.4 |
| 20260506133616 | 77 | 90 | 0.0 | 0.9 | 0.00 | 0.00 | 0.00 | 95 | 1007.5 |
| 20260506133444 | 77 | 89 | 0.0 | 0.9 | 0.00 | 0.01 | 0.00 | 95 | 1006.5 |
| 20260506133114 | 77 | 89 | 0.0 | 0.0 | 0.00 | 0.00 | 0.00 | 95 | 1007.8 |
| 20260506132944 | 77 | 90 | 0.0 | 0.9 | 0.00 | 0.01 | 0.00 | 95 | 1006.7 |
| 20260506132614 | 77 | 82 | 0.0 | 0.0 | 0.00 | 0.00 | 0.00 | 95 | 1007.8 |
| 20260506132442 | 77 | 82 | 0.0 | 0.9 | 0.00 | 0.01 | 0.00 | 95 | 1006.6 |
| 20260506132114 | 77 | 82 | 0.0 | 0.9 | 0.00 | 0.00 | 0.00 | 95 | 1007.8 |
| 20260506131940 | 77 | 82 | 0.0 | 0.9 | 0.00 | 0.01 | 0.00 | 95 | 1006.5 |
| 20260506131614 | 77 | 88 | 0.0 | 0.9 | 0.00 | 0.00 | 0.00 | 95 | 1007.8 |
| 20260506131438 | 77 | 88 | 0.0 | 0.9 | 0.00 | 0.01 | 0.00 | 95 | 1006.5 |
| 20260506131115 | 77 | 84 | 0.0 | 0.0 | 0.00 | 0.00 | 0.00 | 96 | 1007.5 |
| 20260506130614 | 77 | 84 | 0.0 | 0.9 | 0.00 | 0.00 | 0.00 | 96 | 1007.8 |
| 20260506130438 | 76 | 85 | 0.0 | 1.7 | 0.00 | 0.01 | 0.00 | 96 | 1006.6 |
| 20260506130113 | 77 | 90 | 0.0 | 0.9 | 0.00 | 0.00 | 0.00 | 96 | 1007.5 |
| 20260506125938 | 76 | 90 | 0.0 | 2.6 | 0.00 | 0.01 | 0.00 | 96 | 1006.5 |
| 20260506125613 | 77 | 65 | 0.0 | 0.9 | 0.00 | 0.00 | 0.00 | 96 | 1007.5 |
| 20260506125112 | 77 | 105 | 0.0 | 0.9 | 0.00 | 0.00 | 0.00 | 96 | 1007.5 |
| 20260506124638 | 76 | 104 | 0.0 | 0.9 | 0.00 | 0.00 | 0.00 | 96 | 1007.5 |
| 20260506124436 | 76 | 105 | 0.0 | 0.9 | 0.00 | 0.01 | 0.00 | 96 | 1006.3 |
| 20260506124138 | 76 | 104 | 0.0 | 0.9 | 0.00 | 0.00 | 0.00 | 96 | 1007.5 |
| 20260506123934 | 76 | 103 | 0.0 | 0.9 | 0.00 | 0.01 | 0.00 | 96 | 1006.4 |
| 20260506123646 | 76 | 103 | 0.0 | 0.9 | 0.00 | 0.00 | 0.00 | 96 | 1007.5 |
| 20260506123431 | 76 | 103 | 0.0 | 0.9 | 0.00 | 0.01 | 0.00 | 96 | 1006.3 |
| 20260506123212 | 76 | 96 | 0.0 | 0.9 | 0.00 | 0.00 | 0.00 | 96 | 1007.5 |
| 20260506122933 | 76 | 101 | 0.0 | 0.0 | 0.00 | 0.01 | 0.00 | 96 | 1006.4 |
| 20260506122717 | 76 | 76 | 0.0 | 0.0 | 0.00 | 0.00 | 0.00 | 96 | 1007.5 |
| 20260506122212 | 76 | 75 | 0.0 | 0.0 | 0.00 | 0.00 | 0.00 | 96 | 1007.5 |
| 20260506121923 | 76 | 75 | 0.0 | 1.7 | 0.00 | 0.01 | 0.00 | 96 | 1006.3 |
| 20260506121717 | 76 | 75 | 0.0 | 0.0 | 0.00 | 0.00 | 0.00 | 96 | 1007.5 |
| 20260506121422 | 76 | 75 | 0.0 | 1.7 | 0.00 | 0.01 | 0.00 | 96 | 1006.4 |
| 20260506121215 | 76 | 69 | 0.9 | 1.7 | 0.00 | 0.00 | 0.00 | 96 | 1007.5 |
| 20260506120922 | 76 | 92 | 0.0 | 0.9 | 0.00 | 0.01 | 0.00 | 96 | 1006.5 |
| 20260506120711 | 76 | 91 | 0.0 | 0.9 | 0.00 | 0.00 | 0.00 | 96 | 1007.5 |
| 20260506120422 | 76 | 94 | 0.0 | 0.9 | 0.00 | 0.01 | 0.00 | 96 | 1006.3 |
| 20260506120215 | 76 | 94 | 0.0 | 0.0 | 0.00 | 0.00 | 0.00 | 96 | 1007.5 |
| 20260506115919 | 76 | 94 | 0.0 | 0.9 | 0.00 | 0.01 | 0.00 | 96 | 1006.2 |
| 20260506115714 | 76 | 94 | 0.0 | 0.0 | 0.00 | 0.00 | 0.00 | 96 | 1007.5 |
| 20260506115418 | 76 | 94 | 0.0 | 0.9 | 0.00 | 0.01 | 0.00 | 96 | 1006.2 |
| 20260506115210 | 76 | 93 | 0.0 | 0.9 | 0.00 | 0.00 | 0.00 | 96 | 1007.5 |
| 20260506114713 | 76 | 94 | 0.0 | 0.0 | 0.00 | 0.00 | 0.00 | 96 | 1007.5 |
| 20260506114212 | 76 | 92 | 0.0 | 0.0 | 0.00 | 0.00 | 0.00 | 96 | 1007.5 |
| 20260506113914 | 76 | 92 | 0.0 | 0.0 | 0.00 | 0.01 | 0.00 | 96 | 1006.2 |
| 20260506113713 | 76 | 92 | 0.0 | 0.0 | 0.00 | 0.00 | 0.00 | 96 | 1007.5 |
| 20260506113412 | 76 | 92 | 0.0 | 0.9 | 0.00 | 0.01 | 0.00 | 96 | 1006.1 |
| 20260506113212 | 76 | 105 | 0.0 | 0.0 | 0.00 | 0.00 | 0.00 | 96 | 1007.1 |
| 20260506112911 | 76 | 105 | 0.0 | 0.9 | 0.00 | 0.01 | 0.00 | 96 | 1006.0 |
| 20260506112710 | 76 | 105 | 0.0 | 0.0 | 0.00 | 0.00 | 0.00 | 96 | 1007.1 |
| 20260506112407 | 76 | 107 | 0.0 | 0.9 | 0.00 | 0.01 | 0.00 | 96 | 1006.0 |
| 20260506112212 | 76 | 107 | 0.0 | 0.9 | 0.00 | 0.00 | 0.00 | 96 | 1007.1 |
| 20260506111908 | 76 | 108 | 0.0 | 0.9 | 0.00 | 0.01 | 0.00 | 96 | 1006.0 |
| 20260506111712 | 76 | 107 | 0.0 | 0.9 | 0.00 | 0.00 | 0.00 | 96 | 1007.1 |
| 20260506111406 | 76 | 76 | 0.0 | 1.7 | 0.00 | 0.01 | 0.00 | 95 | 1005.9 |
| 20260506111214 | 76 | 94 | 0.0 | 0.0 | 0.00 | 0.00 | 0.00 | 95 | 1007.1 |
| 20260506110904 | 76 | 93 | 0.0 | 1.7 | 0.00 | 0.01 | 0.00 | 95 | 1005.9 |
| 20260506110712 | 76 | 94 | 0.0 | 1.7 | 0.00 | 0.00 | 0.00 | 95 | 1007.1 |
| 20260506110404 | 76 | 325 | 0.0 | 0.9 | 0.00 | 0.01 | 0.00 | 95 | 1005.9 |
| 20260506110211 | 76 | 325 | 0.0 | 0.0 | 0.00 | 0.00 | 0.00 | 95 | 1007.1 |
| 20260506105710 | 76 | 101 | 0.0 | 0.0 | 0.00 | 0.00 | 0.00 | 95 | 1006.8 |
| 20260506105404 | 76 | 96 | 0.0 | 0.9 | 0.00 | 0.01 | 0.00 | 95 | 1005.8 |
| 20260506105212 | 76 | 96 | 0.0 | 0.9 | 0.00 | 0.00 | 0.00 | 95 | 1006.8 |
| 20260506104858 | 76 | 97 | 0.0 | 0.9 | 0.00 | 0.01 | 0.00 | 95 | 1005.7 |
| 20260506104741 | 76 | 97 | 0.0 | 0.9 | 0.00 | 0.00 | 0.00 | 95 | 1006.8 |
| 20260506104351 | 76 | 74 | 0.0 | 1.7 | 0.00 | 0.01 | 0.00 | 95 | 1005.6 |
| 20260506104239 | 76 | 74 | 0.0 | 0.0 | 0.00 | 0.00 | 0.00 | 95 | 1006.8 |
| 20260506103852 | 76 | 65 | 0.0 | 1.7 | 0.00 | 0.01 | 0.00 | 95 | 1005.7 |
| 20260506103742 | 76 | 77 | 0.0 | 1.7 | 0.00 | 0.00 | 0.00 | 95 | 1006.8 |
| 20260506103353 | 76 | 132 | 0.0 | 0.9 | 0.00 | 0.01 | 0.00 | 95 | 1005.7 |
| 20260506103244 | 76 | 133 | 0.0 | 0.0 | 0.00 | 0.00 | 0.00 | 95 | 1006.8 |
| 20260506102850 | 76 | 111 | 0.0 | 0.9 | 0.00 | 0.01 | 0.00 | 95 | 1005.6 |
| 20260506102743 | 76 | 61 | 0.0 | 0.9 | 0.00 | 0.00 | 0.00 | 95 | 1006.8 |
| 20260506102351 | 76 | 64 | 0.0 | 0.9 | 0.00 | 0.01 | 0.00 | 95 | 1005.8 |
| 20260506102239 | 76 | 74 | 0.0 | 0.9 | 0.00 | 0.00 | 0.00 | 95 | 1006.8 |
| 20260506101850 | 76 | 74 | 0.0 | 0.9 | 0.00 | 0.01 | 0.00 | 95 | 1005.8 |
| 20260506101741 | 76 | 74 | 0.0 | 0.9 | 0.00 | 0.00 | 0.00 | 95 | 1006.8 |
| 20260506101240 | 76 | 74 | 0.0 | 0.9 | 0.00 | 0.00 | 0.00 | 95 | 1006.8 |
| 20260506100847 | 76 | 74 | 0.0 | 0.9 | 0.00 | 0.01 | 0.00 | 95 | 1005.8 |
| 20260506100739 | 76 | 74 | 0.0 | 0.0 | 0.00 | 0.00 | 0.00 | 95 | 1006.8 |
| 20260506100241 | 76 | 74 | 0.0 | 0.0 | 0.00 | 0.00 | 0.00 | 95 | 1006.8 |
| 20260506095846 | 76 | 67 | 0.0 | 0.9 | 0.00 | 0.01 | 0.00 | 95 | 1005.7 |
| 20260506095729 | 77 | 66 | 0.0 | 0.0 | 0.00 | 0.00 | 0.00 | 95 | 1006.8 |
| 20260506095345 | 76 | 66 | 0.0 | 0.9 | 0.00 | 0.01 | 0.00 | 95 | 1005.7 |
| 20260506095229 | 77 | 67 | 0.0 | 0.9 | 0.00 | 0.00 | 0.00 | 95 | 1006.8 |
| 20260506094847 | 76 | 67 | 0.0 | 0.9 | 0.00 | 0.01 | 0.00 | 95 | 1005.7 |
| 20260506094731 | 77 | 62 | 0.0 | 0.9 | 0.00 | 0.00 | 0.00 | 95 | 1006.8 |
| 20260506094347 | 76 | 61 | 0.0 | 0.9 | 0.00 | 0.01 | 0.00 | 95 | 1005.7 |
| 20260506094230 | 77 | 18 | 0.0 | 0.0 | 0.00 | 0.00 | 0.00 | 95 | 1006.8 |
| 20260506093846 | 76 | 18 | 0.0 | 0.9 | 0.00 | 0.01 | 0.00 | 95 | 1005.7 |
| 20260506093729 | 77 | 18 | 0.0 | 0.9 | 0.00 | 0.00 | 0.00 | 95 | 1006.8 |
| 20260506093343 | 77 | 33 | 0.0 | 0.9 | 0.00 | 0.01 | 0.00 | 95 | 1005.7 |
| 20260506093229 | 77 | 33 | 0.0 | 0.9 | 0.00 | 0.00 | 0.00 | 95 | 1006.8 |
| 20260506092844 | 76 | 34 | 0.0 | 0.9 | 0.00 | 0.01 | 0.00 | 95 | 1005.6 |
| 20260506092728 | 77 | 33 | 0.0 | 0.0 | 0.00 | 0.00 | 0.00 | 95 | 1006.8 |
| 20260506092344 | 77 | 32 | 0.0 | 0.0 | 0.00 | 0.01 | 0.00 | 94 | 1005.7 |
| 20260506092228 | 77 | 32 | 0.0 | 0.0 | 0.00 | 0.00 | 0.00 | 94 | 1006.8 |
| 20260506091844 | 77 | 32 | 0.0 | 0.0 | 0.00 | 0.01 | 0.00 | 94 | 1005.8 |
| 20260506091729 | 77 | 32 | 0.0 | 0.0 | 0.00 | 0.00 | 0.00 | 94 | 1006.8 |
| 20260506091343 | 77 | 32 | 0.0 | 0.9 | 0.00 | 0.01 | 0.00 | 94 | 1005.6 |
| 20260506091230 | 77 | 33 | 0.0 | 0.0 | 0.00 | 0.00 | 0.00 | 94 | 1006.8 |
| 20260506090843 | 77 | 33 | 0.0 | 0.9 | 0.00 | 0.01 | 0.00 | 94 | 1005.6 |
| 20260506090730 | 77 | 32 | 0.0 | 0.0 | 0.00 | 0.00 | 0.00 | 94 | 1006.8 |
| 20260506090343 | 77 | 32 | 0.0 | 0.9 | 0.00 | 0.01 | 0.00 | 94 | 1005.7 |
| 20260506090229 | 77 | 32 | 0.0 | 0.9 | 0.00 | 0.00 | 0.00 | 94 | 1006.8 |
| 20260506085844 | 77 | 32 | 0.0 | 0.9 | 0.00 | 0.01 | 0.00 | 94 | 1005.8 |
| 20260506085728 | 77 | 32 | 0.0 | 0.0 | 0.00 | 0.00 | 0.00 | 94 | 1006.8 |
| 20260506085343 | 77 | 267 | 0.0 | 0.9 | 0.00 | 0.01 | 0.00 | 94 | 1005.4 |
| 20260506085227 | 77 | 267 | 0.0 | 0.9 | 0.00 | 0.00 | 0.00 | 94 | 1006.4 |
| 20260506084841 | 77 | 264 | 0.0 | 0.9 | 0.00 | 0.01 | 0.00 | 94 | 1005.4 |
| 20260506084728 | 77 | 22 | 0.0 | 0.0 | 0.00 | 0.00 | 0.00 | 94 | 1006.4 |
| 20260506084340 | 77 | 23 | 0.0 | 0.9 | 0.00 | 0.01 | 0.00 | 94 | 1005.5 |
| 20260506084226 | 77 | 282 | 0.0 | 0.0 | 0.00 | 0.00 | 0.00 | 94 | 1006.8 |
| 20260506083844 | 77 | 282 | 0.0 | 0.9 | 0.00 | 0.01 | 0.00 | 93 | 1005.7 |
| 20260506083727 | 77 | 283 | 0.0 | 0.0 | 0.00 | 0.00 | 0.00 | 93 | 1006.8 |
| 20260506083340 | 77 | 98 | 0.0 | 0.9 | 0.00 | 0.01 | 0.00 | 93 | 1005.7 |
| 20260506083226 | 77 | 98 | 0.0 | 0.9 | 0.00 | 0.00 | 0.00 | 93 | 1006.8 |
| 20260506082840 | 77 | 98 | 0.0 | 0.9 | 0.00 | 0.01 | 0.00 | 93 | 1005.7 |
| 20260506082727 | 77 | 99 | 0.0 | 0.9 | 0.00 | 0.00 | 0.00 | 93 | 1006.8 |
| 20260506082340 | 77 | 100 | 0.0 | 0.9 | 0.00 | 0.01 | 0.00 | 93 | 1005.7 |
| 20260506082226 | 77 | 100 | 0.0 | 0.0 | 0.00 | 0.00 | 0.00 | 93 | 1006.8 |
| 20260506081841 | 77 | 101 | 0.0 | 0.9 | 0.00 | 0.01 | 0.00 | 93 | 1005.6 |
| 20260506081728 | 77 | 101 | 0.0 | 0.0 | 0.00 | 0.00 | 0.00 | 93 | 1006.8 |
| 20260506081335 | 77 | 103 | 0.0 | 0.9 | 0.00 | 0.01 | 0.00 | 93 | 1005.6 |
| 20260506081225 | 77 | 103 | 0.0 | 0.9 | 0.00 | 0.00 | 0.00 | 93 | 1006.8 |
| 20260506080836 | 77 | 101 | 0.0 | 0.9 | 0.00 | 0.01 | 0.00 | 93 | 1005.7 |
| 20260506080728 | 77 | 92 | 0.0 | 0.9 | 0.00 | 0.00 | 0.00 | 93 | 1006.8 |
| 20260506080336 | 77 | 265 | 0.0 | 0.9 | 0.00 | 0.01 | 0.00 | 93 | 1005.7 |
| 20260506080228 | 77 | 281 | 0.0 | 0.0 | 0.00 | 0.00 | 0.00 | 93 | 1006.8 |
| 20260506073336 | 77 | 151 | 0.0 | 1.7 | 0.00 | 0.01 | 0.00 | 92 | 1006.0 |
| 20260506073226 | 77 | 153 | 0.0 | 0.0 | 0.00 | 0.00 | 0.00 | 92 | 1007.1 |
| 20260506072832 | 77 | 149 | 0.0 | 1.7 | 0.00 | 0.01 | 0.00 | 92 | 1006.1 |
| 20260506072723 | 77 | 210 | 0.0 | 0.9 | 0.00 | 0.00 | 0.00 | 92 | 1007.1 |
| 20260506072331 | 77 | 209 | 0.0 | 1.7 | 0.00 | 0.01 | 0.00 | 92 | 1006.0 |
| 20260506072223 | 77 | 209 | 0.0 | 0.9 | 0.00 | 0.00 | 0.00 | 92 | 1007.1 |
| 20260506071723 | 77 | 184 | 0.0 | 0.9 | 0.00 | 0.00 | 0.00 | 92 | 1007.5 |
| 20260506071331 | 77 | 240 | 0.0 | 0.9 | 0.00 | 0.01 | 0.00 | 92 | 1006.2 |
| 20260506071222 | 77 | 164 | 0.0 | 0.0 | 0.00 | 0.00 | 0.00 | 92 | 1007.5 |
| 20260506070832 | 77 | 163 | 0.0 | 0.9 | 0.00 | 0.01 | 0.00 | 92 | 1006.3 |
| 20260506070722 | 77 | 164 | 0.0 | 0.9 | 0.00 | 0.00 | 0.00 | 92 | 1007.5 |
| 20260506070332 | 77 | 205 | 0.0 | 1.7 | 0.00 | 0.01 | 0.00 | 92 | 1006.4 |
| 20260506070224 | 77 | 72 | 0.0 | 0.0 | 0.00 | 0.00 | 0.00 | 92 | 1007.5 |
| 20260506062328 | 78 | 200 | 0.0 | 1.7 | 0.00 | 0.01 | 0.00 | 92 | 1006.7 |
| 20260506062222 | 78 | 177 | 0.0 | 1.7 | 0.00 | 0.00 | 0.00 | 92 | 1007.8 |
| 20260506061828 | 78 | 183 | 0.0 | 2.6 | 0.00 | 0.01 | 0.00 | 91 | 1006.8 |
| 20260506061722 | 78 | 158 | 0.9 | 1.7 | 0.00 | 0.00 | 0.00 | 91 | 1007.8 |
| 20260506061327 | 78 | 160 | 0.0 | 2.6 | 0.00 | 0.01 | 0.00 | 91 | 1006.8 |
| 20260506061221 | 78 | 69 | 0.0 | 2.6 | 0.00 | 0.00 | 0.00 | 91 | 1008.1 |
| 20260506060829 | 78 | 236 | 0.0 | 2.6 | 0.00 | 0.01 | 0.00 | 91 | 1006.9 |
| 20260506060723 | 78 | 252 | 0.0 | 1.7 | 0.00 | 0.00 | 0.00 | 91 | 1008.1 |
| 20260506060327 | 78 | 191 | 0.0 | 3.5 | 0.00 | 0.01 | 0.00 | 91 | 1006.9 |
| 20260506060221 | 78 | 216 | 0.0 | 0.9 | 0.00 | 0.00 | 0.00 | 91 | 1008.1 |
| 20260506051323 | 78 | 192 | 0.9 | 6.1 | 0.00 | 0.01 | 0.00 | 92 | 1006.6 |
| 20260506051219 | 78 | 190 | 0.0 | 4.3 | 0.00 | 0.00 | 0.00 | 92 | 1007.8 |
| 20260506050825 | 78 | 240 | 0.9 | 6.1 | 0.00 | 0.01 | 0.00 | 92 | 1006.7 |
| 20260506050722 | 78 | 194 | 0.0 | 1.7 | 0.00 | 0.00 | 0.00 | 92 | 1007.8 |
| 20260506050219 | 78 | 205 | 0.9 | 2.6 | 0.00 | 0.00 | 0.00 | 92 | 1007.8 |
| 20260506044820 | 78 | 183 | 0.9 | 5.2 | 0.00 | 0.01 | 0.01 | 92 | 1006.5 |
| 20260506044719 | 78 | 155 | 0.9 | 3.5 | 0.00 | 0.00 | 0.01 | 92 | 1007.5 |
| 20260506044318 | 78 | 188 | 0.9 | 2.6 | 0.00 | 0.01 | 0.01 | 92 | 1006.4 |
| 20260506044217 | 78 | 211 | 0.0 | 1.7 | 0.00 | 0.00 | 0.01 | 92 | 1007.5 |
| 20260506043817 | 78 | 246 | 0.9 | 2.6 | 0.00 | 0.01 | 0.01 | 92 | 1006.4 |
| 20260506043717 | 78 | 223 | 0.9 | 1.7 | 0.00 | 0.00 | 0.01 | 92 | 1007.5 |
| 20260506043218 | 78 | 195 | 0.0 | 2.6 | 0.00 | 0.00 | 0.01 | 92 | 1007.5 |
| 20260506042718 | 78 | 124 | 1.7 | 3.5 | 0.00 | 0.00 | 0.01 | 92 | 1007.5 |
| 20260506042319 | 78 | 198 | 0.9 | 3.5 | 0.00 | 0.01 | 0.01 | 92 | 1006.1 |
| 20260506042216 | 78 | 183 | 0.9 | 1.7 | 0.00 | 0.00 | 0.01 | 92 | 1007.1 |
| 20260506041819 | 78 | 182 | 0.9 | 3.5 | 0.00 | 0.01 | 0.01 | 92 | 1006.1 |
| 20260506041717 | 78 | 229 | 2.6 | 2.6 | 0.00 | 0.00 | 0.01 | 92 | 1007.5 |
| 20260506041318 | 78 | 190 | 0.0 | 2.6 | 0.00 | 0.01 | 0.01 | 91 | 1006.1 |
| 20260506041218 | 78 | 221 | 0.0 | 1.7 | 0.00 | 0.00 | 0.01 | 91 | 1007.1 |
| 20260506040818 | 78 | 231 | 0.9 | 3.5 | 0.00 | 0.01 | 0.01 | 91 | 1006.1 |
| 20260506040718 | 78 | 180 | 0.0 | 0.9 | 0.00 | 0.00 | 0.01 | 91 | 1007.1 |
| 20260506040219 | 78 | 222 | 0.9 | 3.5 | 0.00 | 0.00 | 0.01 | 91 | 1007.5 |
| 20260506035815 | 78 | 236 | 0.9 | 2.6 | 0.00 | 0.01 | 0.01 | 91 | 1006.1 |
| 20260506035718 | 78 | 138 | 1.7 | 1.7 | 0.00 | 0.00 | 0.01 | 91 | 1007.1 |
| 20260506035216 | 78 | 211 | 0.9 | 2.6 | 0.00 | 0.00 | 0.01 | 91 | 1007.1 |
| 20260506034812 | 78 | 217 | 0.9 | 2.6 | 0.00 | 0.01 | 0.01 | 91 | 1006.0 |
| 20260506034717 | 78 | 250 | 0.0 | 1.7 | 0.00 | 0.00 | 0.01 | 91 | 1007.1 |
| 20260506034216 | 78 | 213 | 0.0 | 1.7 | 0.00 | 0.00 | 0.01 | 91 | 1007.1 |
| 20260506033810 | 78 | 208 | 0.9 | 2.6 | 0.00 | 0.01 | 0.01 | 91 | 1005.8 |
| 20260506033715 | 78 | 173 | 0.0 | 2.6 | 0.00 | 0.00 | 0.01 | 91 | 1006.8 |
| 20260506033312 | 78 | 173 | 0.9 | 2.6 | 0.00 | 0.01 | 0.01 | 91 | 1005.8 |
| 20260506033217 | 78 | 225 | 0.0 | 2.6 | 0.00 | 0.00 | 0.01 | 91 | 1006.8 |
| 20260506032810 | 78 | 197 | 0.9 | 2.6 | 0.00 | 0.01 | 0.01 | 91 | 1005.8 |
| 20260506032714 | 78 | 217 | 0.0 | 1.7 | 0.00 | 0.00 | 0.01 | 91 | 1006.8 |
| 20260506032308 | 78 | 173 | 0.9 | 2.6 | 0.00 | 0.01 | 0.01 | 91 | 1005.7 |
| 20260506032214 | 78 | 171 | 0.9 | 1.7 | 0.00 | 0.00 | 0.01 | 91 | 1006.8 |
| 20260506031807 | 78 | 207 | 0.9 | 3.5 | 0.00 | 0.01 | 0.01 | 91 | 1005.8 |
| 20260506031716 | 78 | 201 | 1.7 | 2.6 | 0.00 | 0.00 | 0.01 | 91 | 1007.1 |
| 20260506031308 | 78 | 86 | 0.9 | 3.5 | 0.00 | 0.01 | 0.01 | 91 | 1005.8 |
| 20260506031215 | 78 | 242 | 1.7 | 3.5 | 0.00 | 0.00 | 0.01 | 91 | 1007.1 |
| 20260506030808 | 78 | 170 | 0.0 | 1.7 | 0.00 | 0.01 | 0.01 | 91 | 1005.9 |
| 20260506030713 | 78 | 141 | 1.7 | 1.7 | 0.00 | 0.00 | 0.01 | 91 | 1007.1 |
| 20260506030308 | 78 | 207 | 0.9 | 2.6 | 0.00 | 0.01 | 0.01 | 91 | 1005.8 |
| 20260506030216 | 78 | 208 | 0.0 | 1.7 | 0.00 | 0.00 | 0.01 | 91 | 1006.8 |
| 20260506025808 | 78 | 142 | 0.0 | 2.6 | 0.00 | 0.01 | 0.01 | 91 | 1005.8 |
| 20260506025715 | 78 | 225 | 0.9 | 2.6 | 0.00 | 0.00 | 0.01 | 91 | 1006.8 |
| 20260506025308 | 78 | 191 | 0.0 | 1.7 | 0.00 | 0.01 | 0.01 | 91 | 1005.8 |
| 20260506025213 | 78 | 164 | 0.0 | 0.9 | 0.00 | 0.00 | 0.01 | 91 | 1006.8 |
| 20260506024742 | 78 | 229 | 0.9 | 1.7 | 0.00 | 0.00 | 0.01 | 91 | 1006.8 |
| 20260506024304 | 78 | 191 | 0.9 | 4.3 | 0.00 | 0.01 | 0.01 | 90 | 1005.5 |
| 20260506024242 | 78 | 202 | 0.9 | 4.3 | 0.00 | 0.00 | 0.01 | 90 | 1006.8 |
| 20260506023758 | 78 | 176 | 0.9 | 4.3 | 0.00 | 0.01 | 0.01 | 90 | 1005.5 |
| 20260506023739 | 78 | 37 | 0.0 | 1.7 | 0.00 | 0.00 | 0.01 | 90 | 1006.8 |
| 20260506023257 | 78 | 202 | 0.9 | 4.3 | 0.00 | 0.01 | 0.01 | 90 | 1005.5 |
| 20260506023241 | 78 | 111 | 0.0 | 4.3 | 0.00 | 0.00 | 0.01 | 90 | 1006.4 |
| 20260506022746 | 78 | 226 | 0.0 | 1.7 | 0.00 | 0.01 | 0.01 | 90 | 1005.3 |
| 20260506022744 | 78 | 207 | 0.9 | 0.9 | 0.00 | 0.00 | 0.01 | 90 | 1006.4 |
| 20260506022314 | 78 | 212 | 0.0 | 0.9 | 0.00 | 0.00 | 0.01 | 90 | 1006.4 |
| 20260506021815 | 78 | 248 | 0.0 | 2.6 | 0.00 | 0.00 | 0.01 | 90 | 1006.1 |
| 20260506021744 | 78 | 220 | 0.9 | 3.5 | 0.00 | 0.01 | 0.01 | 90 | 1005.1 |
| 20260506021313 | 78 | 217 | 0.0 | 3.5 | 0.00 | 0.00 | 0.01 | 90 | 1006.1 |
| 20260506021244 | 78 | 217 | 0.9 | 3.5 | 0.00 | 0.01 | 0.01 | 90 | 1005.0 |
| 20260506020814 | 78 | 247 | 1.7 | 3.5 | 0.00 | 0.00 | 0.01 | 90 | 1006.1 |
| 20260506020745 | 78 | 247 | 0.9 | 4.3 | 0.00 | 0.01 | 0.01 | 90 | 1004.9 |
| 20260506020314 | 78 | 219 | 0.9 | 4.3 | 0.00 | 0.00 | 0.01 | 90 | 1006.1 |
| 20260506020245 | 78 | 197 | 0.9 | 4.3 | 0.00 | 0.01 | 0.01 | 90 | 1005.1 |
| 20260506015813 | 78 | 242 | 0.0 | 1.7 | 0.00 | 0.00 | 0.01 | 90 | 1006.1 |
| 20260506015744 | 78 | 244 | 0.9 | 4.3 | 0.00 | 0.01 | 0.01 | 90 | 1005.0 |
| 20260506015312 | 78 | 208 | 0.0 | 3.5 | 0.00 | 0.00 | 0.01 | 90 | 1006.1 |
| 20260506015244 | 78 | 209 | 1.7 | 4.3 | 0.00 | 0.01 | 0.01 | 90 | 1004.9 |
| 20260506014836 | 78 | 284 | 0.9 | 1.7 | 0.00 | 0.00 | 0.01 | 90 | 1006.1 |
| 20260506014339 | 78 | 163 | 0.9 | 3.5 | 0.00 | 0.00 | 0.01 | 90 | 1006.1 |
| 20260506014245 | 78 | 186 | 0.9 | 3.5 | 0.00 | 0.01 | 0.01 | 90 | 1004.9 |
| 20260506013814 | 78 | 202 | 0.9 | 2.6 | 0.00 | 0.00 | 0.01 | 90 | 1005.8 |
| 20260506013743 | 78 | 234 | 0.9 | 3.5 | 0.00 | 0.01 | 0.01 | 90 | 1004.7 |
| 20260506013313 | 78 | 209 | 1.7 | 3.5 | 0.00 | 0.00 | 0.01 | 90 | 1006.1 |
| 20260506013244 | 78 | 193 | 0.9 | 4.3 | 0.00 | 0.01 | 0.01 | 90 | 1004.8 |
| 20260506012813 | 78 | 234 | 0.9 | 2.6 | 0.00 | 0.00 | 0.01 | 89 | 1005.8 |
| 20260506012745 | 78 | 235 | 0.9 | 4.3 | 0.00 | 0.01 | 0.01 | 89 | 1004.7 |
| 20260506012315 | 78 | 273 | 0.9 | 4.3 | 0.00 | 0.00 | 0.01 | 89 | 1005.8 |
| 20260506012243 | 78 | 269 | 0.9 | 4.3 | 0.00 | 0.01 | 0.01 | 89 | 1004.7 |
| 20260506011815 | 78 | 257 | 1.7 | 2.6 | 0.00 | 0.00 | 0.01 | 89 | 1005.8 |
| 20260506011744 | 78 | 257 | 0.9 | 3.5 | 0.00 | 0.01 | 0.01 | 89 | 1004.5 |
| 20260506011315 | 79 | 205 | 1.7 | 3.5 | 0.00 | 0.00 | 0.01 | 89 | 1005.8 |
| 20260506011241 | 79 | 273 | 0.9 | 3.5 | 0.00 | 0.01 | 0.01 | 89 | 1004.4 |
| 20260506010811 | 79 | 210 | 0.9 | 1.7 | 0.00 | 0.00 | 0.01 | 89 | 1005.4 |
| 20260506010739 | 79 | 184 | 0.9 | 2.6 | 0.00 | 0.01 | 0.01 | 89 | 1004.4 |
| 20260506010343 | 79 | 165 | 0.9 | 2.6 | 0.00 | 0.00 | 0.01 | 89 | 1005.4 |
| 20260506005838 | 79 | 204 | 0.9 | 1.7 | 0.00 | 0.00 | 0.01 | 88 | 1005.4 |
| 20260506005738 | 79 | 191 | 0.9 | 3.5 | 0.00 | 0.01 | 0.01 | 88 | 1004.2 |
| 20260506005340 | 79 | 211 | 0.9 | 1.7 | 0.00 | 0.00 | 0.01 | 88 | 1005.4 |
| 20260506005237 | 79 | 203 | 0.9 | 2.6 | 0.00 | 0.01 | 0.01 | 88 | 1004.2 |
| 20260506004841 | 79 | 169 | 1.7 | 2.6 | 0.00 | 0.00 | 0.01 | 88 | 1005.4 |
| 20260506004738 | 79 | 228 | 0.9 | 3.5 | 0.00 | 0.01 | 0.01 | 88 | 1004.3 |
| 20260506004340 | 79 | 229 | 0.9 | 3.5 | 0.00 | 0.00 | 0.01 | 88 | 1005.4 |
| 20260506004238 | 80 | 259 | 0.9 | 3.5 | 0.00 | 0.01 | 0.01 | 88 | 1004.2 |
| 20260506003838 | 80 | 145 | 0.0 | 1.7 | 0.00 | 0.00 | 0.01 | 87 | 1005.1 |
| 20260506003738 | 80 | 231 | 0.9 | 3.5 | 0.00 | 0.01 | 0.01 | 87 | 1004.1 |
| 20260506003342 | 80 | 269 | 0.0 | 3.5 | 0.00 | 0.00 | 0.01 | 87 | 1005.1 |
| 20260506003235 | 80 | 196 | 0.9 | 3.5 | 0.00 | 0.01 | 0.01 | 87 | 1004.0 |
| 20260506002912 | 80 | 313 | 0.0 | 1.7 | 0.00 | 0.00 | 0.01 | 87 | 1005.1 |
| 20260506002737 | 80 | 329 | 0.9 | 2.6 | 0.00 | 0.01 | 0.01 | 87 | 1004.0 |
| 20260506002416 | 80 | 212 | 0.9 | 2.6 | 0.00 | 0.00 | 0.01 | 86 | 1005.1 |
| 20260506002236 | 80 | 209 | 0.9 | 2.6 | 0.00 | 0.01 | 0.01 | 86 | 1004.0 |
| 20260506001914 | 80 | 207 | 1.7 | 1.7 | 0.00 | 0.00 | 0.01 | 86 | 1005.1 |
| 20260506001736 | 80 | 236 | 0.9 | 3.5 | 0.00 | 0.01 | 0.01 | 86 | 1004.1 |
| 20260506001411 | 80 | 161 | 0.0 | 0.9 | 0.00 | 0.00 | 0.01 | 86 | 1005.1 |
| 20260506001236 | 80 | 186 | 0.9 | 4.3 | 0.00 | 0.01 | 0.01 | 86 | 1004.0 |
| 20260506000913 | 81 | 211 | 0.9 | 3.5 | 0.00 | 0.00 | 0.01 | 86 | 1005.1 |
| 20260506000735 | 81 | 243 | 0.9 | 4.3 | 0.00 | 0.01 | 0.01 | 86 | 1004.0 |
| 20260506000411 | 81 | 111 | 0.9 | 2.6 | 0.00 | 0.00 | 0.01 | 85 | 1005.1 |
| 20260506000236 | 81 | 213 | 0.9 | 4.3 | 0.00 | 0.01 | 0.01 | 85 | 1003.8 |
| 20260505235914 | 81 | 193 | 0.9 | 2.6 | 0.00 | 0.00 | 0.01 | 85 | 1005.1 |
| 20260505235736 | 81 | 210 | 0.9 | 4.3 | 0.00 | 0.01 | 0.01 | 85 | 1003.8 |
| 20260505235411 | 81 | 202 | 1.7 | 4.3 | 0.00 | 0.00 | 0.01 | 84 | 1004.7 |
| 20260505235236 | 81 | 193 | 0.9 | 5.2 | 0.00 | 0.01 | 0.01 | 84 | 1003.8 |
| 20260505234914 | 82 | 193 | 1.7 | 3.5 | 0.00 | 0.00 | 0.01 | 84 | 1005.1 |
| 20260505234735 | 82 | 209 | 0.9 | 5.2 | 0.00 | 0.01 | 0.01 | 84 | 1003.9 |
| 20260505234414 | 82 | 220 | 0.9 | 5.2 | 0.00 | 0.00 | 0.01 | 84 | 1004.7 |
| 20260505234235 | 82 | 202 | 0.9 | 3.5 | 0.00 | 0.01 | 0.01 | 84 | 1003.9 |
| 20260505233916 | 82 | 122 | 0.9 | 3.5 | 0.00 | 0.00 | 0.01 | 83 | 1005.1 |
| 20260505233733 | 82 | 167 | 0.9 | 3.5 | 0.00 | 0.01 | 0.01 | 83 | 1003.8 |
| 20260505233412 | 82 | 153 | 0.0 | 3.5 | 0.00 | 0.00 | 0.01 | 83 | 1004.7 |
| 20260505232914 | 83 | 264 | 0.9 | 2.6 | 0.00 | 0.00 | 0.01 | 83 | 1004.7 |